Regional Weather Roundup
Issued by NWS

Home | Current Version | Previous Version | Text Only | Print | Product List | Glossary Off
Versions: 1 2 3 4 5 6 7 8 9 10 11 12 13 14 15 16 17 18 19 20 21 22 23 24 25 26 27 28 29 30 31 32 33 34 35 36 37 38 39 40 41 42 43 44 45 46 47 48 49 50

000
ASUS43 KTOP 201059
RWRKS

WEATHER ROUNDUP FOR KANSAS
NATIONAL WEATHER SERVICE GOODLAND KS
600 AM CDT WED SEP 20 2017

NOTE:  "FAIR" INDICATES FEW OR NO CLOUDS BELOW 12,000 FEET WITH NO
SIGNIFICANT WEATHER AND/OR OBSTRUCTIONS TO VISIBILITY.

KSZ001>006-013>018-027>032-041>047-201200-
NORTHWEST KANSAS

CITY           SKY/WX    TMP DP  RH WIND       PRES   REMARKS
GOODLAND       CLOUDY    42  34  73 NW9       29.93R
HILL CITY      CLEAR     54  37  52 NW8       29.84R
RUSSELL        CLEAR     59  45  59 N13       29.75R
$$

KSZ061>065-074>080-084>089-201200-
SOUTHWEST KANSAS

CITY           SKY/WX    TMP DP  RH WIND       PRES   REMARKS
DODGE CITY     PTCLDY    56  36  47 N13       29.82R
ELKHART          N/A     52  36  54 NW8         N/A
GARDEN CITY    CLOUDY    54  33  45 N13       29.84R
GREAT BEND     CLEAR     61  44  53 NW9       29.77R
LIBERAL        CLOUDY    53  38  56 N9        29.85R
$$

KSZ066>073-081>083-090>101-201200-
SOUTHEAST KANSAS

CITY           SKY/WX    TMP DP  RH WIND       PRES   REMARKS
CHANUTE        CLOUDY    76  71  85 S15       29.77R
COFFEYVILLE    CLOUDY    76  72  87 S14G22    29.77R
HUTCHINSON     CLEAR     69  63  81 SE8       29.71F
MEDICINE LODGE   N/A     72  62  71 S7        29.72S
NEWTON         CLEAR     73  65  75 S10       29.75R
WICHITA INTL   PTCLDY    73  65  75 S12       29.72R
WICHITA JABRA  CLEAR     75  67  76 SW12      29.75R
WINFIELD       CLEAR     75  67  76 S13       29.73R
$$

KSZ007>012-019>026-033>040-048>060-102>105-201200-
NORTHEAST KANSAS

CITY           SKY/WX    TMP DP  RH WIND       PRES   REMARKS
CONCORDIA      PTCLDY    63  53  70 NW9       29.72R
EMPORIA        CLEAR     73  68  84 S17       29.71R
LAWRENCE       PTCLDY    76  71  85 S13G18    29.71R
MANHATTAN      CLEAR     73  69  87 SW6       29.69R
OLATHE IND     PTCLDY    74  70  87 S13       29.75R
OLATHE EXE     PTCLDY    73  71  93 S13       29.75R
SALINA         CLEAR     69  51  52 W9        29.71R
TOPEKA BILLARD PTCLDY    77  71  82 SW9G18    29.73R
TOPEKA FORBES  PTCLDY    76  71  85 NW14      29.75R
$$



USA.gov is the U.S. government's official web portal to all federal, state and local government web resources and services.